User: anonymous   Login
Location: Mount Tamalpais State Park
(37.9108°N, 122.6128°W)
Time: 15:21:18
(UTC-07:00)
Language:

Cosmos 1814 Rocket - Orbit

View from above orbital plane
View from above orbital plane
View from above satellite
View from above satellite

Ground track
Ground track

The orbit data is extracted from the following two-line orbital elements,

1 17304U 87006B   15124.83048259  .00000144  00000-0  56531-4 0  9991
2 17304 074.0593 073.8341 0028719 107.6787 252.7505 14.37486978482023
Epoch (UTC): 04 May 2015 19:55:53
Eccentricity: 0.0028719
inclination: 74.0593°
perigee height: 746 km
apogee height: 787 km
right ascension of ascending node: 73.8341°
argument of perigee: 107.6787°
revolutions per day: 14.37486978
mean anomaly at epoch: 252.7505°
orbit number at epoch: 48202

The dashed part of the orbit path shows where the satellite is in the earth's shadow,  

DLR